Time,TemperatureF,DewpointF,PressureIn,WindDirection,WindDirectionDegrees,WindSpeedMPH,WindSpeedGustMPH,Humidity,HourlyPrecipIn,Conditions,Clouds,dailyrainin,SoftwareType,DateUTC
2013-09-05 00:02:00,59.6,57.0,29.98,WNW,288,0.0,0.0,90,0.00,,,0.00,weatherlink.com 1.10,2013-09-05 04:02:00,
2013-09-05 00:17:00,59.3,57.0,29.98,WNW,288,0.0,0.0,91,0.00,,,0.00,weatherlink.com 1.10,2013-09-05 04:17:00,
2013-09-05 00:32:00,59.1,57.0,29.98,WNW,288,0.0,0.0,91,0.00,,,0.00,weatherlink.com 1.10,2013-09-05 04:32:00,
2013-09-05 00:47:00,58.7,56.0,29.98,WNW,288,0.0,0.0,91,0.00,,,0.00,weatherlink.com 1.10,2013-09-05 04:47:00,
2013-09-05 01:02:00,58.4,56.0,29.98,WNW,288,0.0,0.0,92,0.00,,,0.00,weatherlink.com 1.10,2013-09-05 05:02:00,
2013-09-05 01:17:00,58.1,56.0,29.99,WNW,288,0.0,0.0,92,0.00,,,0.00,weatherlink.com 1.10,2013-09-05 05:17:00,
2013-09-05 01:32:00,57.9,56.0,29.98,WNW,288,0.0,0.0,93,0.00,,,0.00,weatherlink.com 1.10,2013-09-05 05:32:00,
2013-09-05 01:47:00,57.6,56.0,29.98,WNW,288,0.0,0.0,93,0.00,,,0.00,weatherlink.com 1.10,2013-09-05 05:47:00,
2013-09-05 02:02:00,57.4,56.0,29.98,WNW,288,0.0,0.0,94,0.00,,,0.00,weatherlink.com 1.10,2013-09-05 06:02:00,
2013-09-05 02:17:00,57.1,55.0,29.98,WNW,288,0.0,-999.0,94,-99.99,,,0.00,weatherlink.com 1.10,2013-09-05 06:17:00,
2013-09-05 02:32:00,56.8,55.0,29.97,WNW,288,0.0,0.0,94,0.00,,,0.00,weatherlink.com 1.10,2013-09-05 06:32:00,
2013-09-05 02:47:00,56.6,55.0,29.97,WNW,288,0.0,0.0,94,0.00,,,0.00,weatherlink.com 1.10,2013-09-05 06:47:00,
2013-09-05 03:02:00,56.5,55.0,29.96,WNW,288,0.0,0.0,94,0.00,,,0.00,weatherlink.com 1.10,2013-09-05 07:02:00,
2013-09-05 03:17:00,56.4,55.0,29.97,WNW,288,0.0,0.0,95,0.00,,,0.00,weatherlink.com 1.10,2013-09-05 07:17:00,
2013-09-05 03:32:00,56.2,55.0,29.97,WNW,288,0.0,0.0,95,0.00,,,0.00,weatherlink.com 1.10,2013-09-05 07:32:00,
2013-09-05 03:48:00,55.9,55.0,29.98,WNW,288,0.0,0.0,95,0.00,,,0.00,weatherlink.com 1.10,2013-09-05 07:48:00,
2013-09-05 04:03:00,55.9,55.0,29.97,WNW,288,0.0,0.0,96,0.00,,,0.00,weatherlink.com 1.10,2013-09-05 08:03:00,
2013-09-05 04:18:00,55.8,54.0,29.98,WNW,288,0.0,0.0,95,0.00,,,0.00,weatherlink.com 1.10,2013-09-05 08:18:00,
2013-09-05 04:33:00,55.5,54.0,29.98,WNW,288,0.0,0.0,95,0.00,,,0.00,weatherlink.com 1.10,2013-09-05 08:33:00,
2013-09-05 04:48:00,55.7,55.0,29.98,WNW,288,0.0,0.0,96,0.00,,,0.00,weatherlink.com 1.10,2013-09-05 08:48:00,
2013-09-05 05:04:00,55.8,55.0,29.97,WNW,288,0.0,0.0,96,0.00,,,0.00,weatherlink.com 1.10,2013-09-05 09:04:00,
2013-09-05 05:18:00,55.9,55.0,29.98,WNW,288,0.0,0.0,96,0.00,,,0.00,weatherlink.com 1.10,2013-09-05 09:18:00,
2013-09-05 05:33:00,56.0,55.0,29.98,WNW,288,0.0,0.0,96,0.00,,,0.00,weatherlink.com 1.10,2013-09-05 09:33:00,
2013-09-05 05:48:00,55.9,55.0,29.98,WNW,288,0.0,0.0,95,0.00,,,0.00,weatherlink.com 1.10,2013-09-05 09:48:00,
2013-09-05 06:03:00,55.8,55.0,29.98,WNW,288,0.0,0.0,96,0.01,,,0.01,weatherlink.com 1.10,2013-09-05 10:03:00,
2013-09-05 06:18:00,55.7,55.0,29.98,WNW,288,0.0,0.0,96,0.01,,,0.01,weatherlink.com 1.10,2013-09-05 10:18:00,
2013-09-05 06:33:00,55.7,55.0,29.98,WNW,288,0.0,0.0,96,0.01,,,0.01,weatherlink.com 1.10,2013-09-05 10:33:00,
2013-09-05 06:48:00,55.6,55.0,29.98,WNW,288,0.0,0.0,96,0.01,,,0.01,weatherlink.com 1.10,2013-09-05 10:48:00,
2013-09-05 07:03:00,55.7,55.0,29.98,WNW,288,0.0,0.0,96,0.00,,,0.01,weatherlink.com 1.10,2013-09-05 11:03:00,
2013-09-05 07:18:00,55.8,55.0,29.98,WNW,288,0.0,0.0,96,0.00,,,0.01,weatherlink.com 1.10,2013-09-05 11:18:00,
2013-09-05 07:33:00,57.2,57.0,29.98,WNW,288,0.0,0.0,98,0.00,,,0.01,weatherlink.com 1.10,2013-09-05 11:33:00,
2013-09-05 07:48:00,59.7,59.0,29.98,WNW,288,0.0,0.0,96,0.00,,,0.01,weatherlink.com 1.10,2013-09-05 11:48:00,
2013-09-05 08:03:00,62.8,60.0,29.98,NW,313,0.0,1.0,89,0.00,,,0.01,weatherlink.com 1.10,2013-09-05 12:03:00,
2013-09-05 08:18:00,65.9,61.0,29.98,NW,318,3.0,4.0,85,0.00,,,0.01,weatherlink.com 1.10,2013-09-05 12:18:00,
2013-09-05 08:33:00,69.2,62.0,29.98,NNW,337,2.0,8.0,77,0.00,,,0.01,weatherlink.com 1.10,2013-09-05 12:33:00,
2013-09-05 08:48:00,70.7,62.0,29.98,NW,318,2.0,8.0,73,0.00,,,0.01,weatherlink.com 1.10,2013-09-05 12:48:00,
2013-09-05 09:03:00,71.9,62.0,29.98,WNW,288,2.0,9.0,70,0.00,,,0.01,weatherlink.com 1.10,2013-09-05 13:03:00,
2013-09-05 09:18:00,72.9,62.0,29.99,WNW,291,5.0,7.0,69,0.00,,,0.01,weatherlink.com 1.10,2013-09-05 13:18:00,
2013-09-05 09:33:00,74.0,62.0,29.99,WNW,295,4.0,6.0,67,0.00,,,0.01,weatherlink.com 1.10,2013-09-05 13:33:00,
2013-09-05 09:48:00,74.9,63.0,30.00,West,278,3.0,6.0,66,0.00,,,0.01,weatherlink.com 1.10,2013-09-05 13:48:00,
2013-09-05 10:03:00,75.8,64.0,30.00,WNW,284,5.0,6.0,66,0.00,,,0.01,weatherlink.com 1.10,2013-09-05 14:03:00,
2013-09-05 10:19:00,76.7,64.0,30.00,West,278,4.0,8.0,64,0.00,,,0.01,weatherlink.com 1.10,2013-09-05 14:19:00,
2013-09-05 10:33:00,77.7,64.0,30.00,WNW,290,2.0,8.0,62,0.00,,,0.01,weatherlink.com 1.10,2013-09-05 14:33:00,
2013-09-05 10:48:00,77.5,63.0,30.00,WNW,286,4.0,11.0,62,0.00,,,0.01,weatherlink.com 1.10,2013-09-05 14:48:00,
2013-09-05 11:03:00,76.3,64.0,29.99,West,269,3.0,10.0,65,0.00,,,0.01,weatherlink.com 1.10,2013-09-05 15:03:00,
2013-09-05 11:18:00,76.4,64.0,30.00,NNW,342,2.0,9.0,66,0.00,,,0.01,weatherlink.com 1.10,2013-09-05 15:18:00,
2013-09-05 11:33:00,76.7,64.0,30.00,West,273,2.0,10.0,64,0.00,,,0.01,weatherlink.com 1.10,2013-09-05 15:33:00,
2013-09-05 11:49:00,77.5,64.0,30.00,West,280,6.0,11.0,64,0.00,,,0.01,weatherlink.com 1.10,2013-09-05 15:49:00,
2013-09-05 12:04:00,78.5,64.0,30.00,WNW,298,7.0,9.0,62,0.00,,,0.01,weatherlink.com 1.10,2013-09-05 16:04:00,
2013-09-05 12:19:00,78.3,64.0,30.00,West,274,5.0,9.0,61,0.00,,,0.01,weatherlink.com 1.10,2013-09-05 16:19:00,
2013-09-05 12:34:00,79.0,64.0,30.00,WNW,299,3.0,11.0,61,0.00,,,0.01,weatherlink.com 1.10,2013-09-05 16:34:00,
2013-09-05 12:49:00,78.4,66.0,30.00,NW,310,3.0,10.0,65,0.00,,,0.01,weatherlink.com 1.10,2013-09-05 16:49:00,
2013-09-05 13:04:00,79.1,64.0,29.99,WNW,295,5.0,9.0,60,0.00,,,0.01,weatherlink.com 1.10,2013-09-05 17:04:00,
2013-09-05 13:19:00,78.4,63.0,29.99,West,259,7.0,11.0,60,0.00,,,0.01,weatherlink.com 1.10,2013-09-05 17:19:00,
2013-09-05 13:34:00,77.9,64.0,29.99,NW,305,3.0,9.0,62,0.00,,,0.01,weatherlink.com 1.10,2013-09-05 17:34:00,
2013-09-05 13:49:00,78.0,63.0,29.98,NW,315,4.0,8.0,61,0.00,,,0.01,weatherlink.com 1.10,2013-09-05 17:49:00,
2013-09-05 14:04:00,77.1,63.0,29.98,WNW,302,1.0,6.0,63,0.00,,,0.01,weatherlink.com 1.10,2013-09-05 18:04:00,
2013-09-05 14:19:00,77.4,64.0,29.97,West,265,4.0,7.0,63,0.00,,,0.01,weatherlink.com 1.10,2013-09-05 18:19:00,
2013-09-05 14:34:00,78.9,63.0,29.97,West,277,3.0,9.0,59,0.00,,,0.01,weatherlink.com 1.10,2013-09-05 18:34:00,
2013-09-05 14:49:00,80.2,64.0,29.97,NW,315,0.0,8.0,59,0.00,,,0.01,weatherlink.com 1.10,2013-09-05 18:49:00,
2013-09-05 15:04:00,80.3,64.0,29.97,WNW,294,0.0,9.0,57,0.00,,,0.01,weatherlink.com 1.10,2013-09-05 19:04:00,
2013-09-05 15:19:00,79.2,63.0,29.96,WNW,291,3.0,5.0,58,0.00,,,0.01,weatherlink.com 1.10,2013-09-05 19:19:00,
2013-09-05 15:34:00,78.7,62.0,29.96,WNW,293,6.0,8.0,56,0.00,,,0.01,weatherlink.com 1.10,2013-09-05 19:34:00,
2013-09-05 15:49:00,78.7,60.0,29.96,WNW,294,3.0,9.0,53,0.00,,,0.01,weatherlink.com 1.10,2013-09-05 19:49:00,
2013-09-05 16:04:00,79.2,59.0,29.96,WSW,254,6.0,11.0,51,0.00,,,0.01,weatherlink.com 1.10,2013-09-05 20:04:00,
2013-09-05 16:19:00,79.5,59.0,29.96,WNW,296,3.0,10.0,49,0.00,,,0.01,weatherlink.com 1.10,2013-09-05 20:19:00,
2013-09-05 16:34:00,79.1,56.0,29.96,NW,312,0.0,10.0,45,0.00,,,0.01,weatherlink.com 1.10,2013-09-05 20:34:00,
2013-09-05 16:49:00,78.7,56.0,29.97,West,267,4.0,11.0,46,0.00,,,0.01,weatherlink.com 1.10,2013-09-05 20:49:00,
2013-09-05 17:04:00,78.1,54.0,29.97,WSW,254,5.0,11.0,44,0.00,,,0.01,weatherlink.com 1.10,2013-09-05 21:04:00,
2013-09-05 17:20:00,77.4,54.0,29.97,SW,234,0.0,10.0,45,0.00,,,0.01,weatherlink.com 1.10,2013-09-05 21:20:00,
2013-09-05 17:34:00,77.3,55.0,29.97,West,269,6.0,12.0,46,0.00,,,0.01,weatherlink.com 1.10,2013-09-05 21:34:00,
2013-09-05 17:49:00,77.1,55.0,29.98,WNW,292,0.0,10.0,47,0.00,,,0.01,weatherlink.com 1.10,2013-09-05 21:49:00,
2013-09-05 18:04:00,77.3,55.0,29.99,WSW,253,2.0,14.0,46,0.00,,,0.01,weatherlink.com 1.10,2013-09-05 22:04:00,
2013-09-05 18:19:00,77.4,54.0,29.99,West,280,2.0,7.0,45,0.00,,,0.01,weatherlink.com 1.10,2013-09-05 22:19:00,
2013-09-05 18:34:00,77.2,54.0,29.99,NW,322,0.0,7.0,45,0.00,,,0.01,weatherlink.com 1.10,2013-09-05 22:34:00,
2013-09-05 18:49:00,76.5,55.0,29.99,WNW,284,0.0,10.0,47,0.00,,,0.01,weatherlink.com 1.10,2013-09-05 22:49:00,
2013-09-05 19:04:00,75.4,54.0,30.00,NW,311,1.0,6.0,47,0.00,,,0.01,weatherlink.com 1.10,2013-09-05 23:04:00,
2013-09-05 19:19:00,73.7,53.0,30.00,WNW,286,0.0,7.0,48,0.00,,,0.01,weatherlink.com 1.10,2013-09-05 23:19:00,
2013-09-05 19:34:00,72.3,51.0,30.01,West,279,1.0,4.0,48,0.00,,,0.01,weatherlink.com 1.10,2013-09-05 23:34:00,
2013-09-05 19:49:00,70.8,51.0,30.01,WNW,283,3.0,5.0,50,0.00,,,0.01,weatherlink.com 1.10,2013-09-05 23:49:00,
2013-09-05 20:04:00,69.5,51.0,30.02,WNW,284,1.0,5.0,52,0.00,,,0.01,weatherlink.com 1.10,2013-09-06 00:04:00,
2013-09-05 20:19:00,68.6,51.0,30.03,West,281,1.0,4.0,53,0.00,,,0.01,weatherlink.com 1.10,2013-09-06 00:19:00,
2013-09-05 20:34:00,67.6,51.0,30.03,West,275,1.0,4.0,55,0.00,,,0.01,weatherlink.com 1.10,2013-09-06 00:34:00,
2013-09-05 20:49:00,66.7,52.0,30.04,West,270,0.0,0.0,59,0.00,,,0.01,weatherlink.com 1.10,2013-09-06 00:49:00,
2013-09-05 21:04:00,65.2,52.0,30.04,WNW,290,0.0,2.0,62,0.00,,,0.01,weatherlink.com 1.10,2013-09-06 01:04:00,
2013-09-05 21:19:00,63.9,52.0,30.05,WNW,289,0.0,2.0,65,0.00,,,0.01,weatherlink.com 1.10,2013-09-06 01:19:00,
2013-09-05 21:34:00,63.2,52.0,30.05,WNW,289,0.0,1.0,68,0.00,,,0.01,weatherlink.com 1.10,2013-09-06 01:34:00,
2013-09-05 21:49:00,62.2,52.0,30.05,WNW,291,0.0,1.0,69,0.00,,,0.01,weatherlink.com 1.10,2013-09-06 01:49:00,
2013-09-05 22:04:00,61.8,53.0,30.06,WNW,291,0.0,0.0,72,0.00,,,0.01,weatherlink.com 1.10,2013-09-06 02:04:00,
2013-09-05 22:19:00,61.2,53.0,30.06,WNW,291,0.0,0.0,75,0.00,,,0.01,weatherlink.com 1.10,2013-09-06 02:19:00,
2013-09-05 22:34:00,60.0,53.0,30.06,WNW,288,0.0,3.0,78,0.00,,,0.01,weatherlink.com 1.10,2013-09-06 02:34:00,
2013-09-05 22:49:00,59.6,53.0,30.06,WNW,288,0.0,0.0,79,0.00,,,0.01,weatherlink.com 1.10,2013-09-06 02:49:00,
2013-09-05 23:04:00,58.9,53.0,30.07,WNW,288,0.0,0.0,80,0.00,,,0.01,weatherlink.com 1.10,2013-09-06 03:04:00,
2013-09-05 23:19:00,58.1,53.0,30.07,WNW,288,0.0,0.0,83,0.00,,,0.01,weatherlink.com 1.10,2013-09-06 03:19:00,
2013-09-05 23:34:00,57.2,53.0,30.07,WNW,288,0.0,0.0,85,0.00,,,0.01,weatherlink.com 1.10,2013-09-06 03:34:00,
2013-09-05 23:49:00,56.6,53.0,30.07,WNW,288,0.0,0.0,86,0.00,,,0.01,weatherlink.com 1.10,2013-09-06 03:49:00,